SCP
1 1 2 2 1 1 1 1 1 1 0 0 0 0 0 0 0 0 0 1 1 0 0 0 0 0 0 0 0 0 0 0 0 0 0 0 0 0 0 0 0 0 0
1 1 2 2 1 1 1 1 1 1 1 1 0 0 0 0 0 0 0 1 0 0 0 0 0 0 0 0 0 0 0 0 0 0 0 0 0 0 0 0 0 0 0
1 1 2 2 1 1 1 1 1 1 1 1 1 0 0 0 0 0 1 1 1 0 0 0 0 0 0 0 0 0 0 0 0 0 0 0 0 0 0 0 0 0 0
2 1 2 2 2 1 1 1 1 1 1 1 1 1 1 0 0 0 1 1 0 0 0 0 0 0 0 0 0 0 0 0 0 0 0 0 0 0 0 0 0 0 0
2 2 2 2 2 2 1 1 1 1 1 1 1 1 1 1 1 0 1 1 0 0 0 0 0 0 0 0 0 0 0 0 0 0 0 0 0 0 0 0 0 0 0
2 2 2 2 2 2 2 2 1 1 1 1 1 1 1 1 1 1 1 1 1 0 0 0 0 0 0 0 0 0 0 0 0 0 0 0 0 0 0 0 0 0 0
2 2 2 2 2 2 2 2 2 2 2 1 1 1 1 1 1 1 1 1 1 1 1 1 0 0 0 0 0 0 0 0 0 0 0 0 0 0 0 0 0 0 0
2 2 2 2 2 2 3 2 2 2 2 2 1 1 1 1 1 1 1 1 1 1 1 1 1 1 1 0 0 0 0 0 0 0 0 0 0 0 1 1 1 0 0
2 2 2 2 2 2 2 2 2 2 2 2 2 2 1 1 1 1 1 1 1 1 1 1 1 1 1 1 0 0 0 0 0 0 0 0 0 1 1 1 1 1 1
2 2 2 2 2 2 2 2 2 2 2 2 2 2 1 1 1 1 1 1 1 1 1 1 1 1 1 1 1 0 0 0 0 0 0 0 1 1 1 1 1 1 1
3 3 2 2 2 2 2 2 2 2 2 2 2 2 2 1 1 1 1 1 1 1 1 1 1 1 1 1 1 1 1 1 0 0 0 1 1 1 1 1 1 1 1
4 3 3 2 2 2 2 2 2 2 2 2 2 2 2 1 1 1 1 1 1 1 1 1 1 1 1 1 1 1 1 1 1 0 0 1 1 1 1 1 1 1 1
5 4 3 3 3 3 3 3 2 2 2 2 2 2 2 2 1 1 1 2 2 2 2 2 2 2 2 1 1 1 1 1 1 1 0 1 1 1 2 2 2 2 2
6 5 4 4 4 3 3 3 2 2 2 2 2 2 2 2 2 2 2 2 2 5 6 4 3 3 2 2 1 1 1 1 1 1 1 1 1 2 2 2 2 2 2
8 6 5 5 5 4 3 3 2 2 2 2 2 2 2 2 2 2 2 3 4 7 10 7 3 3 3 2 2 1 1 1 1 1 1 1 2 2 2 2 2 2 2
9 7 5 5 5 5 4 4 3 3 3 3 3 3 3 3 3 3 3 3 4 6 12 15 8 3 4 3 2 2 1 1 1 1 1 1 2 2 2 2 2 2 2
8 7 6 6 5 5 5 5 5 4 3 3 3 3 3 3 3 3 3 3 3 3 12 20 12 3 3 3 3 2 2 3 3 2 1 1 2 2 2 2 2 2 2
7 7 6 6 5 5 6 6 5 4 4 4 3 3 3 3 3 3 3 3 3 3 8 11 8 3 2 3 3 3 2 3 5 3 1 1 2 2 2 3 3 2 2
6 6 6 6 5 5 6 6 5 5 4 4 3 3 3 3 3 3 3 3 3 3 3 3 3 3 2 2 2 2 2 3 4 3 2 2 2 2 2 3 3 2 2
5 5 5 5 5 5 5 5 5 5 5 4 3 3 2 2 3 3 3 3 3 3 3 3 3 2 2 2 2 2 2 2 2 2 2 2 2 2 2 2 2 2 2
4 4 4 4 4 5 4 4 4 4 4 3 3 2 2 2 3 3 3 3 2 2 2 2 2 2 2 2 2 2 1 2 2 2 2 2 2 2 2 3 3 2 1
3 2 2 3 4 4 4 3 2 2 3 3 2 2 2 3 3 3 3 2 2 1 1 1 1 1 1 1 1 1 1 1 1 2 2 2 2 2 2 3 4 3 1
1 1 2 2 2 3 3 2 2 2 2 3 3 2 2 3 3 2 2 1 1 1 1 1 1 1 1 1 1 1 1 1 1 1 1 1 2 1 1 2 3 2 1
1 1 1 1 1 2 2 2 2 1 2 2 2 2 1 2 2 1 1 1 1 1 0 0 0 0 0 0 1 1 1 0 0 0 1 1 1 1 1 1 1 1 1
1 1 1 1 1 1 1 1 1 1 1 1 1 1 1 1 1 1 1 1 1 0 0 0 0 0 0 0 0 0 0 0 0 0 0 1 1 1 1 1 1 2 2
2 2 2 1 1 1 1 1 1 1 1 1 1 0 0 0 0 1 1 1 1 0 0 0 0 0 0 0 0 0 0 0 0 0 0 0 1 1 1 1 1 2 2
Wind_Speed
11 13 20 21 21 20 19 19 18 18 18 17 17 17 17 17 17 17 16 15 15 14 14 13 13 13 13 13 14 14 14 15 15 16 15 14 13 13 14 15 14 11 16
16 16 20 20 21 20 20 19 18 18 17 17 17 16 16 16 16 16 15 15 14 14 13 13 13 13 13 13 13 13 14 14 15 15 15 13 13 12 13 15 14 10 16
19 15 18 20 21 20 20 19 19 18 17 17 16 16 16 15 15 15 14 14 14 13 13 12 12 12 12 12 12 12 12 12 13 14 13 7 8 12 14 15 15 15 15
19 14 16 21 21 21 20 19 19 18 17 17 16 16 15 15 14 14 13 13 13 13 12 12 12 11 11 11 10 10 10 10 11 12 6 4 6 14 15 15 15 14 14
16 12 16 22 21 21 20 19 18 18 17 17 16 16 15 15 14 14 13 12 12 12 12 11 11 11 10 9 9 8 8 8 8 7 4 4 5 13 15 15 15 14 14
14 11 15 21 21 20 20 19 18 18 18 17 17 16 15 15 14 14 13 12 12 12 12 11 11 10 9 8 8 7 6 6 5 2 3 5 5 12 15 15 15 14 14
13 10 13 20 20 20 19 19 18 18 18 17 17 16 15 15 15 14 13 13 12 12 12 11 11 11 10 9 8 7 6 5 3 2 4 5 7 13 16 16 15 14 14
16 12 12 19 20 19 19 18 17 17 17 17 16 16 15 15 14 14 14 13 13 13 12 12 12 11 10 9 8 7 7 6 4 3 4 6 11 15 17 16 15 15 14
14 12 9 11 14 18 18 17 17 16 16 16 16 15 15 15 14 14 14 14 13 13 13 13 13 12 11 10 10 9 8 8 3 2 4 5 12 16 18 17 17 16 15
11 10 8 8 8 8 10 16 16 16 15 15 15 15 15 14 14 14 12 13 14 14 13 13 14 14 13 12 12 11 11 8 4 3 2 6 14 17 18 18 18 17 16
11 9 8 8 7 7 7 12 13 14 14 14 13 15 13 6 6 8 11 13 15 15 15 14 14 14 14 13 14 13 11 4 4 3 3 8 14 18 19 19 19 19 18
12 10 8 9 8 7 8 6 5 6 6 6 5 7 5 4 5 8 9 16 16 16 16 16 16 14 12 6 10 12 5 5 5 4 5 11 15 19 20 19 20 20 19
11 11 10 10 10 9 6 6 4 3 4 5 6 6 4 4 4 5 4 8 10 13 9 10 11 7 6 5 5 5 6 5 4 5 6 11 15 19 20 20 20 20 20
11 10 10 10 10 9 7 6 6 4 4 5 6 7 5 4 4 5 4 5 6 5 6 6 5 7 7 7 7 7 7 6 5 4 6 12 13 18 20 21 20 20 20
9 9 9 9 10 9 7 6 6 5 5 5 5 7 7 5 5 5 4 4 6 5 6 6 6 7 8 8 8 9 9 9 8 6 4 11 13 17 20 21 20 20 20
6 8 9 9 8 7 6 5 4 4 4 4 4 5 6 5 5 4 3 4 4 5 6 6 7 7 7 6 8 9 9 8 9 8 6 7 13 16 19 21 21 21 21
4 4 5 6 5 5 5 5 4 3 3 3 3 4 5 5 5 4 4 3 3 4 5 4 5 5 5 6 8 9 7 8 7 8 7 6 7 14 19 21 20 20 21
5 4 2 3 4 4 3 2 2 2 2 2 2 2 4 5 4 3 3 3 3 3 3 3 3 4 5 5 5 6 6 6 8 8 7 7 7 8 13 20 20 20 21
5 5 4 4 4 3 2 2 2 2 1 1 1 2 2 3 3 2 3 3 2 2 2 3 3 3 4 5 5 5 5 5 6 8 8 9 9 8 7 13 20 21 21
5 5 5 5 5 4 3 2 2 2 1 1 0 1 2 2 2 2 2 2 2 2 2 3 3 4 3 4 6 6 5 5 5 6 8 7 7 10 10 10 10 14 20
5 5 4 4 4 3 2 2 2 1 1 1 1 1 1 1 1 1 1 2 2 2 3 3 3 4 4 3 2 3 4 5 6 6 6 6 7 9 9 10 8 7 8
3 3 3 3 2 2 1 1 0 1 1 1 1 1 1 1 1 1 1 2 2 2 3 3 3 2 3 3 3 2 2 3 4 7 6 7 7 7 8 11 9 9 7
3 3 3 2 2 2 2 1 2 2 2 2 2 2 2 2 2 2 2 2 2 2 2 2 2 3 3 2 3 3 3 4 3 3 5 6 7 6 7 7 9 10 10
4 3 3 3 2 1 2 2 1 1 1 2 2 2 3 3 2 2 3 3 3 2 2 3 2 2 2 2 2 3 4 3 2 2 2 3 6 7 7 7 8 9 9
2 2 2 2 2 1 2 2 1 1 2 2 2 3 3 4 4 3 3 3 3 3 3 3 2 2 2 2 2 2 3 3 3 3 3 2 1 3 5 6 6 6 8
1 1 1 1 1 1 1 1 1 3 3 3 4 3 3 3 3 3 3 3 4 3 4 4 3 3 3 2 2 2 2 2 3 3 3 3 2 3 3 4 5 6 6
Wind_Direction
155 160 154 148 143 140 137 134 130 127 125 122 120 119 117 117 117 119 120 122 123 123 120 118 115 113 111 112 114 116 118 119 120 120 118 116 117 118 117 115 113 111 115
151 157 154 149 146 144 142 139 136 133 131 129 128 126 124 123 123 123 124 126 127 127 124 122 121 119 118 117 119 122 123 124 124 122 118 114 115 122 122 119 116 120 120
146 153 153 150 148 147 145 143 141 139 137 136 135 134 133 132 131 130 130 131 132 131 130 128 127 126 124 124 124 125 127 129 128 126 120 113 113 122 126 124 123 123 123
146 151 153 152 150 149 149 147 146 145 144 143 142 142 142 141 140 139 138 138 138 137 138 137 135 134 133 133 132 131 132 135 137 135 126 132 125 125 129 129 129 129 129
144 148 156 154 153 152 152 151 150 149 149 150 149 150 150 150 149 148 148 148 147 146 147 146 145 144 144 144 142 142 142 145 150 145 144 149 134 138 137 137 137 136 136
142 146 157 155 154 153 154 155 155 155 155 155 156 157 158 159 159 159 159 160 159 158 157 156 155 155 157 158 159 158 158 163 165 158 153 153 153 152 147 146 145 143 142
143 147 156 156 156 156 157 158 160 161 161 161 163 164 166 167 168 169 169 171 171 169 168 168 167 167 170 174 179 180 181 188 184 177 170 167 174 163 157 154 152 152 151
146 148 154 158 158 158 160 162 165 166 166 167 169 172 174 175 176 177 178 179 180 179 180 180 180 180 182 187 194 201 205 213 199 180 179 181 185 173 165 162 160 160 159
145 148 152 158 161 163 164 166 168 170 172 173 175 178 180 182 184 185 186 188 190 189 190 190 191 191 193 196 204 212 220 225 215 179 200 185 192 182 174 170 169 169 168
144 151 152 154 157 161 166 170 172 174 176 179 182 185 188 190 191 193 194 197 198 198 199 201 202 202 202 204 211 217 225 232 224 205 200 199 199 191 183 178 176 177 176
148 156 157 157 157 157 164 177 177 180 185 186 190 193 193 196 197 200 204 205 206 207 208 209 211 212 211 212 216 221 225 219 215 216 206 212 202 198 191 186 183 182 183
158 166 168 166 164 165 177 174 177 185 189 190 192 198 191 189 202 206 213 215 215 216 217 217 219 219 217 215 221 223 221 215 220 223 217 217 209 204 198 194 190 187 187
161 167 173 175 173 177 183 172 183 189 187 195 198 201 197 198 208 214 212 224 224 223 221 220 221 219 213 209 213 216 218 218 220 225 224 221 213 208 203 199 196 192 191
158 167 175 180 180 186 187 180 185 192 195 201 205 203 200 206 217 220 217 218 217 216 213 212 213 213 213 214 214 218 220 220 220 219 230 234 218 207 204 204 202 198 196
154 162 177 182 184 185 181 180 183 192 197 200 206 207 203 209 220 223 223 220 215 211 210 213 218 217 216 216 219 221 220 220 221 217 227 233 222 210 207 207 206 203 202
148 168 179 183 188 178 174 175 176 180 186 184 191 199 198 208 219 221 230 231 219 213 212 210 218 220 220 217 223 225 222 217 220 216 217 228 226 216 212 210 209 209 208
138 169 185 175 169 159 164 166 155 156 162 172 189 192 189 201 209 207 218 234 230 220 216 218 223 223 227 226 230 230 226 219 215 213 213 214 223 224 218 214 213 211 212
86 93 105 142 135 141 145 145 150 144 143 163 169 173 187 201 197 199 218 233 234 221 214 215 218 220 226 228 231 237 232 221 217 213 209 211 212 221 223 221 218 216 214
67 71 65 68 80 85 80 80 74 94 122 153 160 173 190 203 195 195 221 236 240 234 225 233 221 215 226 233 232 234 234 231 222 223 215 213 209 208 210 223 223 220 217
64 61 56 48 46 46 33 36 45 41 24 18 184 206 207 206 205 199 221 246 241 235 242 239 236 228 225 231 246 248 240 238 230 224 220 217 210 211 210 213 219 222 219
74 72 69 69 55 54 40 25 19 356 339 343 310 237 207 213 227 218 243 251 236 230 245 248 244 239 234 214 224 265 260 242 236 230 218 210 215 217 213 211 208 209 217
101 97 91 86 77 77 82 76 214 258 295 295 316 316 272 243 238 214 218 238 242 245 261 260 238 231 237 200 186 216 278 285 252 235 216 213 216 213 217 213 208 206 209
157 160 147 148 134 115 91 61 19 19 14 1 345 324 299 272 244 223 218 218 229 220 239 250 239 228 238 231 199 189 198 235 270 266 230 220 208 207 214 209 207 207 206
203 186 170 172 162 153 125 100 103 94 298 271 277 286 299 294 274 254 236 222 215 213 224 237 225 219 217 237 240 224 218 206 211 278 287 234 211 206 210 211 208 204 201
193 175 172 161 175 196 172 161 154 215 237 259 282 297 298 298 289 275 246 227 220 218 222 224 217 214 207 218 233 236 238 233 219 213 257 278 253 220 209 207 202 200 195
154 141 147 138 250 270 245 218 214 246 260 279 287 288 289 287 285 277 260 236 227 222 222 219 213 214 219 221 230 233 231 232 218 202 219 234 236 243 220 207 197 192 190